QPF
0.00 0.00 0.00 0.01 0.01 0.02 0.02 0.01 0.01 0.01 0.00 0.01 0.00 0.00 0.01 0.01 0.01 0.03 0.05 0.08 0.09 0.11 0.13 0.15 0.16 0.16 0.18 0.20 0.21 0.28 0.21 0.18 0.15 0.16 0.15 0.15 0.12 0.09 0.06 0.06 0.06 0.05 0.04 0.03 0.04 0.05 0.05 0.05 0.03
0.00 0.00 0.00 0.01 0.02 0.02 0.02 0.01 0.01 0.01 0.01 0.01 0.01 0.01 0.01 0.01 0.01 0.04 0.08 0.09 0.11 0.11 0.12 0.16 0.16 0.15 0.15 0.14 0.17 0.22 0.20 0.14 0.11 0.10 0.09 0.10 0.11 0.10 0.06 0.05 0.04 0.04 0.04 0.03 0.03 0.03 0.04 0.05 0.03
0.00 0.00 0.00 0.01 0.02 0.02 0.02 0.01 0.01 0.00 0.00 0.00 0.00 0.01 0.01 0.01 0.02 0.06 0.12 0.10 0.10 0.12 0.13 0.14 0.12 0.10 0.09 0.10 0.14 0.20 0.15 0.11 0.10 0.08 0.07 0.07 0.07 0.06 0.05 0.04 0.04 0.03 0.03 0.03 0.03 0.04 0.05 0.06 0.05
0.00 0.00 0.01 0.01 0.01 0.01 0.01 0.01 0.00 0.00 0.00 0.00 0.00 0.00 0.00 0.02 0.04 0.06 0.07 0.06 0.06 0.08 0.10 0.10 0.09 0.08 0.08 0.10 0.17 0.16 0.10 0.08 0.07 0.07 0.08 0.08 0.07 0.05 0.03 0.04 0.04 0.03 0.04 0.03 0.02 0.03 0.03 0.05 0.04
0.00 0.00 0.01 0.01 0.01 0.00 0.00 0.00 0.00 0.00 0.00 0.00 0.00 0.00 0.01 0.02 0.03 0.03 0.03 0.04 0.05 0.07 0.09 0.08 0.07 0.07 0.08 0.08 0.09 0.08 0.07 0.06 0.05 0.05 0.05 0.05 0.05 0.05 0.04 0.04 0.04 0.04 0.03 0.03 0.03 0.03 0.04 0.04 0.04
0.00 0.00 0.01 0.01 0.00 0.00 0.00 0.00 0.00 0.00 0.00 0.00 0.00 0.01 0.02 0.01 0.02 0.02 0.02 0.02 0.03 0.06 0.07 0.06 0.06 0.07 0.07 0.06 0.05 0.05 0.05 0.05 0.04 0.04 0.04 0.05 0.05 0.05 0.07 0.07 0.06 0.05 0.05 0.05 0.06 0.05 0.05 0.04 0.04
0.00 0.01 0.01 0.01 0.00 0.00 0.00 0.00 0.00 0.00 0.00 0.00 0.00 0.01 0.02 0.01 0.03 0.03 0.03 0.02 0.02 0.03 0.05 0.05 0.04 0.04 0.05 0.05 0.05 0.05 0.05 0.04 0.04 0.04 0.06 0.07 0.08 0.09 0.09 0.09 0.07 0.06 0.06 0.06 0.07 0.08 0.06 0.04 0.04
0.00 0.00 0.00 0.00 0.01 0.01 0.00 0.00 0.00 0.00 0.00 0.00 0.00 0.01 0.02 0.01 0.01 0.02 0.02 0.01 0.01 0.01 0.02 0.02 0.02 0.03 0.04 0.04 0.04 0.04 0.04 0.06 0.05 0.05 0.06 0.07 0.09 0.07 0.06 0.06 0.07 0.08 0.09 0.08 0.08 0.08 0.05 0.05 0.04
0.00 0.00 0.01 0.01 0.01 0.01 0.00 0.00 0.00 0.00 0.00 0.00 0.00 0.00 0.00 0.00 0.00 0.01 0.01 0.01 0.01 0.01 0.02 0.01 0.01 0.02 0.03 0.03 0.03 0.03 0.06 0.08 0.07 0.08 0.06 0.08 0.10 0.07 0.06 0.06 0.08 0.11 0.12 0.10 0.08 0.06 0.05 0.03 0.02
0.00 0.00 0.00 0.00 0.00 0.00 0.00 0.00 0.00 0.00 0.00 0.00 0.01 0.00 0.00 0.00 0.00 0.00 0.01 0.01 0.02 0.03 0.02 0.01 0.01 0.02 0.03 0.03 0.04 0.06 0.06 0.07 0.07 0.07 0.06 0.08 0.08 0.08 0.04 0.06 0.10 0.14 0.16 0.12 0.08 0.06 0.05 0.03 0.02
0.00 0.00 0.00 0.00 0.00 0.00 0.00 0.00 0.00 0.00 0.00 0.00 0.01 0.01 0.00 0.00 0.00 0.01 0.01 0.01 0.02 0.02 0.02 0.01 0.01 0.02 0.03 0.03 0.04 0.05 0.05 0.06 0.06 0.07 0.06 0.06 0.05 0.05 0.04 0.06 0.08 0.10 0.10 0.10 0.07 0.06 0.04 0.02 0.03
0.00 0.00 0.00 0.00 0.00 0.00 0.00 0.00 0.00 0.00 0.00 0.00 0.00 0.00 0.00 0.00 0.01 0.03 0.04 0.04 0.02 0.01 0.01 0.01 0.01 0.02 0.02 0.03 0.03 0.03 0.03 0.03 0.04 0.07 0.08 0.06 0.06 0.05 0.05 0.06 0.07 0.07 0.08 0.09 0.09 0.07 0.06 0.04 0.05
0.00 0.00 0.00 0.00 0.00 0.00 0.00 0.00 0.00 0.00 0.00 0.00 0.00 0.00 0.00 0.01 0.01 0.03 0.07 0.06 0.03 0.03 0.01 0.00 0.00 0.01 0.02 0.03 0.03 0.02 0.02 0.04 0.04 0.04 0.05 0.06 0.06 0.06 0.06 0.06 0.07 0.05 0.05 0.07 0.07 0.07 0.08 0.07 0.05
0.00 0.00 0.00 0.00 0.00 0.00 0.00 0.00 0.00 0.00 0.00 0.00 0.00 0.01 0.01 0.01 0.02 0.04 0.05 0.04 0.02 0.03 0.03 0.02 0.01 0.01 0.02 0.03 0.03 0.03 0.02 0.04 0.05 0.04 0.04 0.05 0.05 0.06 0.07 0.06 0.07 0.05 0.03 0.05 0.07 0.07 0.08 0.09 0.07
0.00 0.00 0.00 0.00 0.00 0.00 0.00 0.00 0.00 0.00 0.00 0.00 0.00 0.01 0.01 0.01 0.02 0.04 0.03 0.02 0.02 0.04 0.05 0.05 0.02 0.03 0.05 0.04 0.03 0.01 0.01 0.02 0.03 0.04 0.04 0.05 0.05 0.06 0.06 0.06 0.05 0.04 0.04 0.06 0.07 0.08 0.07 0.08 0.07
0.00 0.00 0.00 0.00 0.00 0.00 0.00 0.00 0.00 0.00 0.00 0.00 0.00 0.00 0.00 0.01 0.02 0.04 0.03 0.02 0.02 0.01 0.02 0.02 0.01 0.02 0.04 0.04 0.05 0.03 0.03 0.04 0.04 0.04 0.04 0.07 0.06 0.05 0.05 0.04 0.04 0.05 0.07 0.07 0.07 0.07 0.06 0.07 0.07
0.00 0.00 0.00 0.00 0.00 0.00 0.00 0.00 0.00 0.00 0.00 0.00 0.00 0.01 0.00 0.01 0.02 0.03 0.03 0.03 0.04 0.02 0.03 0.02 0.01 0.01 0.02 0.03 0.04 0.05 0.03 0.02 0.02 0.04 0.04 0.05 0.05 0.04 0.04 0.05 0.06 0.07 0.07 0.06 0.05 0.05 0.06 0.07 0.06
0.00 0.00 0.00 0.00 0.00 0.00 0.00 0.00 0.00 0.00 0.00 0.00 0.00 0.00 0.00 0.01 0.01 0.02 0.02 0.03 0.04 0.03 0.04 0.02 0.02 0.02 0.02 0.02 0.03 0.03 0.04 0.03 0.04 0.05 0.05 0.05 0.05 0.05 0.05 0.05 0.04 0.04 0.06 0.07 0.08 0.07 0.06 0.06 0.07
0.00 0.00 0.00 0.00 0.00 0.00 0.00 0.00 0.00 0.00 0.00 0.00 0.01 0.01 0.00 0.00 0.01 0.01 0.01 0.01 0.03 0.03 0.03 0.04 0.04 0.04 0.02 0.02 0.02 0.03 0.04 0.04 0.04 0.05 0.04 0.04 0.04 0.04 0.05 0.03 0.05 0.05 0.06 0.07 0.07 0.05 0.04 0.04 0.04
0.00 0.00 0.00 0.00 0.00 0.00 0.00 0.00 0.00 0.00 0.00 0.00 0.00 0.01 0.01 0.01 0.01 0.01 0.00 0.00 0.02 0.02 0.03 0.05 0.03 0.06 0.03 0.02 0.03 0.03 0.04 0.04 0.05 0.03 0.03 0.02 0.02 0.03 0.03 0.03 0.03 0.04 0.07 0.05 0.04 0.04 0.03 0.03 0.03
0.00 0.00 0.00 0.00 0.00 0.00 0.00 0.00 0.00 0.00 0.00 0.00 0.00 0.01 0.00 0.00 0.01 0.01 0.00 0.00 0.00 0.01 0.01 0.01 0.02 0.02 0.02 0.02 0.04 0.05 0.05 0.05 0.04 0.04 0.03 0.02 0.02 0.03 0.03 0.03 0.03 0.05 0.06 0.05 0.06 0.06 0.05 0.04 0.03
0.00 0.00 0.00 0.00 0.00 0.00 0.00 0.00 0.00 0.00 0.00 0.01 0.01 0.01 0.01 0.00 0.00 0.00 0.00 0.00 0.00 0.00 0.01 0.01 0.01 0.01 0.01 0.02 0.05 0.07 0.08 0.08 0.07 0.05 0.05 0.05 0.04 0.04 0.04 0.05 0.06 0.06 0.05 0.06 0.05 0.04 0.06 0.05 0.05
0.00 0.00 0.00 0.00 0.00 0.00 0.00 0.00 0.00 0.00 0.00 0.00 0.00 0.00 0.00 0.00 0.00 0.00 0.00 0.00 0.00 0.00 0.01 0.01 0.02 0.03 0.02 0.03 0.04 0.05 0.08 0.08 0.08 0.06 0.05 0.05 0.04 0.03 0.03 0.04 0.05 0.04 0.04 0.05 0.04 0.04 0.06 0.07 0.06
0.00 0.00 0.00 0.00 0.00 0.01 0.00 0.00 0.00 0.00 0.00 0.00 0.00 0.00 0.00 0.00 0.00 0.00 0.00 0.00 0.00 0.00 0.01 0.01 0.02 0.04 0.05 0.04 0.04 0.03 0.05 0.06 0.07 0.09 0.07 0.05 0.04 0.04 0.03 0.03 0.04 0.04 0.04 0.05 0.04 0.04 0.05 0.06 0.07
0.00 0.00 0.01 0.01 0.00 0.00 0.00 0.00 0.00 0.00 0.00 0.00 0.00 0.00 0.00 0.00 0.00 0.01 0.00 0.00 0.00 0.00 0.01 0.02 0.03 0.04 0.04 0.04 0.03 0.03 0.04 0.04 0.04 0.06 0.11 0.10 0.07 0.05 0.04 0.04 0.04 0.05 0.06 0.07 0.06 0.06 0.05 0.05 0.06
0.00 0.00 0.01 0.01 0.00 0.00 0.00 0.00 0.00 0.00 0.00 0.00 0.00 0.00 0.00 0.00 0.00 0.00 0.00 0.01 0.01 0.01 0.01 0.02 0.03 0.03 0.02 0.02 0.02 0.02 0.03 0.03 0.03 0.03 0.04 0.08 0.10 0.09 0.06 0.05 0.06 0.07 0.09 0.10 0.09 0.07 0.05 0.04 0.04
0.00 0.00 0.00 0.00 0.00 0.00 0.00 0.00 0.00 0.00 0.00 0.00 0.00 0.00 0.01 0.00 0.01 0.00 0.00 0.01 0.01 0.02 0.02 0.05 0.09 0.05 0.02 0.02 0.03 0.03 0.03 0.02 0.02 0.02 0.02 0.03 0.04 0.06 0.07 0.07 0.06 0.06 0.06 0.05 0.05 0.06 0.04 0.04 0.04
0.00 0.00 0.00 0.00 0.01 0.00 0.00 0.00 0.00 0.00 0.00 0.00 0.00 0.00 0.01 0.00 0.00 0.00 0.00 0.01 0.01 0.02 0.03 0.06 0.05 0.02 0.01 0.01 0.02 0.02 0.02 0.02 0.01 0.01 0.01 0.02 0.03 0.03 0.06 0.10 0.09 0.05 0.03 0.02 0.03 0.04 0.04 0.04 0.04
0.00 0.00 0.00 0.00 0.01 0.00 0.00 0.00 0.00 0.00 0.00 0.00 0.00 0.00 0.00 0.00 0.00 0.00 0.00 0.00 0.01 0.01 0.01 0.02 0.02 0.01 0.01 0.01 0.01 0.02 0.02 0.01 0.01 0.02 0.03 0.04 0.03 0.03 0.03 0.04 0.05 0.05 0.04 0.03 0.03 0.03 0.03 0.04 0.04
0.00 0.00 0.00 0.00 0.00 0.00 0.00 0.00 0.00 0.00 0.00 0.00 0.00 0.00 0.00 0.00 0.00 0.00 0.00 0.00 0.00 0.00 0.00 0.01 0.01 0.01 0.01 0.01 0.01 0.01 0.02 0.01 0.02 0.03 0.04 0.04 0.04 0.04 0.03 0.02 0.02 0.02 0.03 0.04 0.04 0.04 0.03 0.03 0.04
MSLP
1008.67 1009.09 1009.69 1010.37 1011.01 1011.48 1011.74 1011.76 1011.60 1011.36 1011.16 1011.10 1011.25 1011.61 1012.10 1012.62 1013.04 1013.26 1013.23 1012.96 1012.53 1012.04 1011.61 1011.34 1011.28 1011.42 1011.70 1012.04 1012.37 1012.63 1012.82 1012.95 1013.08 1013.27 1013.54 1013.92 1014.35 1014.81 1015.21 1015.51 1015.69 1015.76 1015.75 1015.71 1015.69 1015.73 1015.81 1015.92 1016.02
1008.54 1009.05 1009.72 1010.43 1011.07 1011.53 1011.78 1011.79 1011.64 1011.43 1011.26 1011.25 1011.43 1011.81 1012.31 1012.82 1013.24 1013.46 1013.45 1013.23 1012.85 1012.43 1012.08 1011.87 1011.85 1012.00 1012.27 1012.58 1012.87 1013.10 1013.26 1013.38 1013.50 1013.68 1013.94 1014.28 1014.67 1015.06 1015.40 1015.64 1015.77 1015.80 1015.78 1015.75 1015.75 1015.81 1015.91 1016.02 1016.10
1008.54 1009.13 1009.83 1010.54 1011.17 1011.61 1011.83 1011.83 1011.69 1011.49 1011.36 1011.37 1011.57 1011.94 1012.42 1012.92 1013.31 1013.53 1013.54 1013.37 1013.06 1012.73 1012.46 1012.32 1012.35 1012.53 1012.80 1013.09 1013.37 1013.57 1013.72 1013.83 1013.95 1014.11 1014.34 1014.64 1014.97 1015.29 1015.55 1015.73 1015.81 1015.82 1015.81 1015.80 1015.83 1015.91 1016.02 1016.13 1016.18
1008.63 1009.26 1009.98 1010.68 1011.26 1011.67 1011.86 1011.86 1011.72 1011.55 1011.44 1011.46 1011.66 1012.02 1012.47 1012.92 1013.29 1013.50 1013.54 1013.41 1013.19 1012.95 1012.77 1012.71 1012.80 1013.00 1013.28 1013.57 1013.82 1014.02 1014.16 1014.26 1014.37 1014.53 1014.73 1014.98 1015.25 1015.50 1015.70 1015.81 1015.86 1015.86 1015.86 1015.87 1015.93 1016.02 1016.13 1016.21 1016.23
1008.77 1009.41 1010.11 1010.77 1011.31 1011.68 1011.85 1011.84 1011.72 1011.58 1011.50 1011.54 1011.74 1012.07 1012.47 1012.88 1013.21 1013.41 1013.46 1013.39 1013.24 1013.10 1013.02 1013.05 1013.19 1013.42 1013.70 1013.98 1014.22 1014.40 1014.53 1014.63 1014.74 1014.89 1015.07 1015.29 1015.51 1015.70 1015.84 1015.91 1015.93 1015.93 1015.92 1015.95 1016.01 1016.10 1016.19 1016.23 1016.19
1008.90 1009.53 1010.19 1010.80 1011.29 1011.61 1011.77 1011.77 1011.69 1011.59 1011.55 1011.61 1011.80 1012.10 1012.46 1012.82 1013.10 1013.28 1013.35 1013.32 1013.25 1013.20 1013.21 1013.31 1013.51 1013.76 1014.05 1014.31 1014.53 1014.69 1014.80 1014.90 1015.01 1015.15 1015.32 1015.52 1015.70 1015.86 1015.95 1016.00 1016.00 1015.98 1015.97 1015.99 1016.04 1016.10 1016.14 1016.11 1016.00
1009.01 1009.60 1010.19 1010.73 1011.17 1011.47 1011.62 1011.66 1011.63 1011.59 1011.60 1011.69 1011.89 1012.16 1012.47 1012.76 1013.00 1013.15 1013.22 1013.23 1013.22 1013.24 1013.33 1013.50 1013.73 1014.01 1014.28 1014.52 1014.71 1014.85 1014.95 1015.05 1015.15 1015.30 1015.47 1015.65 1015.82 1015.95 1016.02 1016.04 1016.02 1015.98 1015.96 1015.95 1015.96 1015.96 1015.93 1015.83 1015.64
1009.08 1009.62 1010.14 1010.61 1011.00 1011.27 1011.44 1011.52 1011.55 1011.58 1011.65 1011.78 1011.99 1012.23 1012.49 1012.73 1012.91 1013.02 1013.08 1013.11 1013.15 1013.23 1013.38 1013.59 1013.86 1014.14 1014.40 1014.62 1014.78 1014.89 1014.97 1015.06 1015.17 1015.31 1015.49 1015.68 1015.84 1015.96 1016.03 1016.03 1015.98 1015.92 1015.85 1015.80 1015.74 1015.68 1015.57 1015.39 1015.13
1009.16 1009.62 1010.07 1010.48 1010.81 1011.06 1011.25 1011.37 1011.47 1011.57 1011.71 1011.89 1012.10 1012.33 1012.54 1012.72 1012.84 1012.91 1012.94 1012.97 1013.04 1013.16 1013.35 1013.60 1013.89 1014.17 1014.42 1014.62 1014.75 1014.83 1014.89 1014.96 1015.07 1015.23 1015.41 1015.61 1015.78 1015.90 1015.96 1015.94 1015.87 1015.77 1015.66 1015.54 1015.42 1015.28 1015.10 1014.85 1014.53
1009.27 1009.67 1010.05 1010.39 1010.67 1010.91 1011.10 1011.26 1011.41 1011.58 1011.77 1011.99 1012.21 1012.43 1012.60 1012.73 1012.79 1012.81 1012.82 1012.84 1012.91 1013.05 1013.27 1013.54 1013.84 1014.13 1014.37 1014.54 1014.64 1014.70 1014.74 1014.80 1014.91 1015.06 1015.26 1015.46 1015.65 1015.77 1015.82 1015.79 1015.70 1015.56 1015.40 1015.23 1015.04 1014.83 1014.58 1014.28 1013.92
1009.47 1009.82 1010.13 1010.40 1010.64 1010.84 1011.02 1011.20 1011.38 1011.59 1011.83 1012.07 1012.30 1012.50 1012.65 1012.74 1012.75 1012.73 1012.70 1012.70 1012.77 1012.92 1013.14 1013.43 1013.74 1014.03 1014.26 1014.41 1014.50 1014.53 1014.56 1014.61 1014.71 1014.86 1015.06 1015.28 1015.47 1015.60 1015.65 1015.61 1015.49 1015.32 1015.12 1014.90 1014.66 1014.40 1014.11 1013.77 1013.39
1009.77 1010.08 1010.35 1010.56 1010.73 1010.88 1011.03 1011.20 1011.39 1011.61 1011.85 1012.11 1012.34 1012.54 1012.67 1012.72 1012.71 1012.65 1012.59 1012.57 1012.63 1012.77 1013.00 1013.29 1013.60 1013.89 1014.12 1014.27 1014.34 1014.36 1014.37 1014.41 1014.50 1014.65 1014.85 1015.07 1015.26 1015.40 1015.45 1015.41 1015.28 1015.08 1014.85 1014.59 1014.33 1014.04 1013.73 1013.38 1012.99
1010.16 1010.46 1010.68 1010.84 1010.95 1011.04 1011.14 1011.25 1011.41 1011.60 1011.83 1012.08 1012.31 1012.50 1012.62 1012.66 1012.63 1012.56 1012.48 1012.44 1012.47 1012.61 1012.83 1013.12 1013.44 1013.73 1013.96 1014.11 1014.18 1014.19 1014.19 1014.21 1014.28 1014.42 1014.62 1014.83 1015.03 1015.17 1015.23 1015.18 1015.05 1014.85 1014.60 1014.34 1014.06 1013.77 1013.47 1013.13 1012.75
1010.59 1010.89 1011.09 1011.20 1011.26 1011.29 1011.31 1011.35 1011.43 1011.57 1011.75 1011.96 1012.17 1012.35 1012.47 1012.52 1012.49 1012.41 1012.33 1012.28 1012.30 1012.42 1012.63 1012.91 1013.23 1013.53 1013.77 1013.92 1014.00 1014.01 1014.00 1014.00 1014.06 1014.17 1014.35 1014.55 1014.74 1014.89 1014.95 1014.91 1014.79 1014.60 1014.37 1014.11 1013.86 1013.59 1013.31 1013.00 1012.64
1010.99 1011.30 1011.49 1011.58 1011.60 1011.56 1011.50 1011.45 1011.44 1011.49 1011.60 1011.75 1011.93 1012.10 1012.22 1012.27 1012.25 1012.19 1012.11 1012.05 1012.06 1012.17 1012.37 1012.65 1012.97 1013.27 1013.53 1013.69 1013.78 1013.79 1013.77 1013.76 1013.79 1013.88 1014.02 1014.21 1014.39 1014.52 1014.59 1014.57 1014.47 1014.31 1014.11 1013.89 1013.67 1013.45 1013.21 1012.94 1012.62
1011.29 1011.61 1011.81 1011.90 1011.89 1011.81 1011.68 1011.53 1011.42 1011.36 1011.38 1011.46 1011.59 1011.73 1011.84 1011.91 1011.91 1011.86 1011.79 1011.74 1011.75 1011.84 1012.03 1012.30 1012.62 1012.94 1013.21 1013.40 1013.50 1013.52 1013.49 1013.46 1013.46 1013.51 1013.62 1013.78 1013.93 1014.07 1014.14 1014.14 1014.08 1013.95 1013.79 1013.63 1013.46 1013.30 1013.13 1012.91 1012.63
1011.42 1011.76 1012.00 1012.11 1012.11 1012.00 1011.82 1011.59 1011.38 1011.21 1011.11 1011.10 1011.15 1011.25 1011.34 1011.41 1011.43 1011.41 1011.35 1011.31 1011.32 1011.41 1011.59 1011.86 1012.18 1012.51 1012.80 1013.02 1013.14 1013.17 1013.15 1013.10 1013.07 1013.09 1013.15 1013.27 1013.40 1013.52 1013.60 1013.62 1013.59 1013.51 1013.41 1013.31 1013.21 1013.12 1013.02 1012.88 1012.66
1011.37 1011.74 1012.02 1012.19 1012.23 1012.13 1011.92 1011.63 1011.31 1011.03 1010.81 1010.68 1010.64 1010.68 1010.74 1010.80 1010.83 1010.82 1010.79 1010.76 1010.78 1010.87 1011.05 1011.32 1011.65 1011.99 1012.31 1012.55 1012.70 1012.76 1012.75 1012.69 1012.63 1012.61 1012.63 1012.71 1012.81 1012.91 1013.00 1013.04 1013.04 1013.01 1012.97 1012.94 1012.92 1012.91 1012.89 1012.83 1012.68
1011.17 1011.58 1011.92 1012.16 1012.26 1012.20 1011.99 1011.65 1011.25 1010.84 1010.49 1010.23 1010.08 1010.03 1010.04 1010.08 1010.11 1010.12 1010.11 1010.11 1010.13 1010.23 1010.41 1010.68 1011.02 1011.39 1011.73 1012.01 1012.20 1012.29 1012.29 1012.24 1012.17 1012.11 1012.10 1012.14 1012.21 1012.30 1012.38 1012.44 1012.48 1012.49 1012.51 1012.54 1012.60 1012.67 1012.74 1012.76 1012.71
1010.88 1011.33 1011.75 1012.09 1012.27 1012.26 1012.06 1011.69 1011.20 1010.67 1010.17 1009.77 1009.49 1009.33 1009.27 1009.28 1009.31 1009.33 1009.35 1009.37 1009.41 1009.52 1009.71 1009.99 1010.34 1010.72 1011.09 1011.41 1011.64 1011.77 1011.80 1011.77 1011.70 1011.63 1011.60 1011.61 1011.65 1011.73 1011.81 1011.88 1011.94 1012.00 1012.06 1012.15 1012.27 1012.41 1012.57 1012.68 1012.73
1010.61 1011.10 1011.60 1012.03 1012.30 1012.35 1012.15 1011.74 1011.16 1010.51 1009.86 1009.30 1008.88 1008.61 1008.47 1008.43 1008.46 1008.50 1008.54 1008.59 1008.67 1008.79 1008.99 1009.27 1009.62 1010.02 1010.41 1010.76 1011.03 1011.20 1011.28 1011.28 1011.23 1011.18 1011.14 1011.14 1011.18 1011.24 1011.32 1011.40 1011.48 1011.56 1011.66 1011.78 1011.95 1012.15 1012.37 1012.57 1012.71
1010.41 1010.96 1011.53 1012.05 1012.39 1012.48 1012.29 1011.83 1011.15 1010.36 1009.56 1008.84 1008.28 1007.89 1007.67 1007.60 1007.62 1007.68 1007.76 1007.85 1007.95 1008.10 1008.30 1008.57 1008.92 1009.31 1009.71 1010.08 1010.38 1010.60 1010.73 1010.77 1010.77 1010.75 1010.73 1010.74 1010.78 1010.85 1010.93 1011.01 1011.10 1011.19 1011.29 1011.43 1011.61 1011.84 1012.10 1012.36 1012.58
1010.36 1010.95 1011.59 1012.16 1012.55 1012.66 1012.45 1011.92 1011.15 1010.22 1009.27 1008.41 1007.71 1007.22 1006.94 1006.83 1006.86 1006.96 1007.08 1007.21 1007.35 1007.51 1007.70 1007.96 1008.27 1008.63 1009.01 1009.38 1009.70 1009.96 1010.13 1010.24 1010.29 1010.32 1010.35 1010.39 1010.45 1010.53 1010.61 1010.70 1010.77 1010.85 1010.94 1011.06 1011.23 1011.45 1011.72 1012.00 1012.27
1010.42 1011.06 1011.75 1012.36 1012.76 1012.86 1012.60 1012.00 1011.12 1010.08 1009.00 1008.01 1007.21 1006.65 1006.32 1006.21 1006.26 1006.40 1006.57 1006.75 1006.92 1007.08 1007.26 1007.47 1007.73 1008.04 1008.38 1008.72 1009.03 1009.30 1009.52 1009.68 1009.79 1009.89 1009.97 1010.06 1010.16 1010.25 1010.34 1010.42 1010.48 1010.53 1010.58 1010.66 1010.78 1010.95 1011.19 1011.45 1011.73
1010.56 1011.24 1011.95 1012.56 1012.95 1013.01 1012.69 1012.02 1011.06 1009.92 1008.75 1007.68 1006.82 1006.22 1005.89 1005.79 1005.88 1006.08 1006.31 1006.53 1006.72 1006.88 1007.02 1007.18 1007.37 1007.60 1007.86 1008.14 1008.42 1008.68 1008.92 1009.12 1009.30 1009.45 1009.60 1009.74 1009.88 1010.00 1010.10 1010.16 1010.19 1010.20 1010.19 1010.20 1010.24 1010.34 1010.50 1010.71 1010.95
1010.69 1011.39 1012.11 1012.70 1013.04 1013.04 1012.67 1011.93 1010.91 1009.73 1008.52 1007.43 1006.56 1005.98 1005.68 1005.63 1005.78 1006.03 1006.32 1006.58 1006.79 1006.94 1007.05 1007.13 1007.23 1007.36 1007.52 1007.72 1007.94 1008.18 1008.41 1008.64 1008.85 1009.06 1009.26 1009.45 1009.63 1009.77 1009.88 1009.93 1009.93 1009.88 1009.80 1009.73 1009.67 1009.67 1009.73 1009.85 1010.02
1010.73 1011.44 1012.13 1012.67 1012.95 1012.90 1012.48 1011.71 1010.68 1009.51 1008.33 1007.29 1006.47 1005.95 1005.72 1005.74 1005.96 1006.28 1006.62 1006.92 1007.14 1007.28 1007.34 1007.36 1007.36 1007.38 1007.45 1007.55 1007.70 1007.88 1008.08 1008.31 1008.55 1008.79 1009.02 1009.25 1009.46 1009.62 1009.73 1009.76 1009.73 1009.63 1009.48 1009.32 1009.16 1009.05 1009.00 1009.01 1009.08
1010.61 1011.31 1011.94 1012.42 1012.64 1012.53 1012.09 1011.34 1010.35 1009.26 1008.18 1007.25 1006.55 1006.14 1006.01 1006.12 1006.41 1006.80 1007.18 1007.51 1007.74 1007.86 1007.89 1007.85 1007.78 1007.71 1007.68 1007.69 1007.76 1007.87 1008.04 1008.24 1008.47 1008.71 1008.97 1009.21 1009.43 1009.60 1009.70 1009.72 1009.66 1009.52 1009.32 1009.08 1008.83 1008.62 1008.45 1008.36 1008.32
1010.33 1010.97 1011.54 1011.93 1012.08 1011.94 1011.51 1010.81 1009.94 1008.98 1008.08 1007.32 1006.78 1006.51 1006.50 1006.71 1007.08 1007.51 1007.93 1008.28 1008.51 1008.63 1008.64 1008.57 1008.46 1008.34 1008.24 1008.18 1008.18 1008.24 1008.35 1008.51 1008.70 1008.93 1009.17 1009.40 1009.61 1009.78 1009.87 1009.88 1009.80 1009.64 1009.40 1009.11 1008.80 1008.51 1008.26 1008.06 1007.92
1009.93 1010.49 1010.95 1011.25 1011.33 1011.17 1010.77 1010.18 1009.46 1008.70 1008.01 1007.47 1007.13 1007.02 1007.14 1007.44 1007.86 1008.32 1008.76 1009.12 1009.37 1009.49 1009.51 1009.45 1009.33 1009.20 1009.08 1008.99 1008.95 1008.96 1009.02 1009.12 1009.27 1009.45 1009.65 1009.86 1010.04 1010.19 1010.27 1010.28 1010.19 1010.02 1009.77 1009.46 1009.13 1008.79 1008.48 1008.21 1007.99
Thickness
5820 5822 5822 5817 5809 5801 5789 5793 5801 5798 5799 5803 5803 5800 5792 5786 5780 5771 5788 5795 5793 5791 5788 5783 5781 5780 5778 5777 5775 5774 5773 5771 5771 5770 5769 5767 5766 5766 5766 5765 5765 5764 5763 5762 5761 5760 5760 5759 5759
5828 5826 5821 5817 5807 5790 5786 5798 5797 5798 5803 5806 5804 5800 5794 5788 5790 5789 5791 5792 5793 5791 5788 5783 5780 5779 5778 5776 5774 5773 5772 5770 5770 5768 5767 5766 5765 5765 5764 5764 5763 5763 5762 5761 5760 5759 5758 5758 5758
5830 5828 5821 5816 5802 5793 5789 5800 5801 5805 5809 5807 5801 5800 5795 5787 5790 5791 5792 5793 5793 5790 5787 5782 5779 5778 5778 5776 5773 5772 5771 5770 5768 5768 5767 5766 5765 5764 5763 5763 5762 5762 5761 5760 5759 5758 5757 5757 5757
5831 5827 5824 5813 5798 5803 5804 5807 5808 5806 5807 5808 5804 5794 5793 5794 5795 5795 5794 5794 5792 5789 5787 5782 5779 5778 5778 5777 5774 5772 5770 5769 5768 5767 5766 5765 5764 5763 5763 5762 5762 5761 5760 5759 5758 5758 5757 5757 5756
5834 5827 5815 5806 5803 5808 5814 5815 5814 5807 5805 5805 5804 5791 5786 5793 5798 5798 5795 5794 5792 5790 5787 5782 5778 5777 5776 5775 5773 5771 5770 5769 5768 5766 5765 5765 5764 5763 5763 5762 5761 5761 5760 5759 5758 5758 5757 5757 5756
5830 5828 5810 5800 5802 5811 5816 5819 5817 5809 5806 5806 5803 5793 5786 5794 5795 5796 5797 5795 5793 5791 5788 5782 5777 5776 5774 5773 5772 5771 5769 5768 5767 5766 5765 5764 5764 5763 5762 5762 5761 5760 5759 5759 5758 5758 5757 5757 5756
5825 5821 5809 5808 5805 5809 5814 5823 5818 5811 5806 5807 5810 5796 5790 5794 5797 5798 5797 5795 5793 5791 5788 5785 5781 5777 5774 5773 5772 5770 5769 5768 5767 5766 5765 5764 5764 5763 5762 5762 5761 5760 5759 5759 5759 5758 5758 5757 5757
5836 5827 5815 5813 5809 5809 5820 5823 5822 5817 5810 5816 5815 5799 5792 5795 5799 5798 5796 5794 5791 5790 5789 5786 5784 5781 5779 5776 5772 5771 5769 5769 5768 5767 5765 5765 5764 5764 5763 5763 5761 5760 5760 5759 5759 5759 5758 5758 5758
5840 5823 5812 5814 5813 5815 5824 5821 5823 5827 5819 5815 5815 5811 5807 5803 5801 5796 5792 5790 5788 5787 5788 5787 5786 5783 5781 5779 5775 5772 5770 5769 5768 5768 5767 5766 5768 5769 5766 5765 5762 5761 5760 5760 5760 5759 5759 5759 5759
5835 5818 5817 5827 5830 5826 5825 5823 5823 5820 5812 5808 5806 5807 5807 5803 5798 5794 5791 5788 5786 5785 5786 5787 5786 5784 5782 5780 5777 5776 5775 5773 5772 5771 5770 5770 5770 5769 5769 5765 5763 5762 5761 5761 5761 5761 5761 5762 5765
5835 5824 5829 5834 5837 5835 5829 5827 5829 5821 5811 5812 5808 5804 5803 5801 5798 5796 5793 5792 5790 5788 5786 5787 5786 5784 5783 5781 5779 5778 5777 5775 5774 5772 5771 5771 5771 5771 5771 5769 5766 5765 5765 5765 5764 5764 5767 5768 5768
5833 5834 5836 5837 5840 5836 5831 5830 5827 5823 5820 5826 5821 5814 5806 5801 5799 5797 5794 5793 5792 5790 5787 5788 5786 5784 5782 5781 5780 5779 5778 5777 5777 5773 5771 5772 5772 5772 5771 5769 5769 5768 5768 5767 5767 5767 5767 5766 5766
5833 5834 5840 5843 5842 5839 5835 5830 5826 5823 5827 5828 5822 5814 5808 5804 5802 5800 5798 5795 5793 5790 5789 5789 5787 5783 5781 5779 5779 5780 5779 5778 5778 5774 5773 5771 5772 5772 5772 5770 5768 5769 5769 5769 5767 5767 5767 5766 5766
5838 5839 5840 5842 5841 5840 5833 5830 5827 5823 5828 5823 5817 5812 5810 5806 5804 5800 5797 5794 5792 5791 5790 5790 5787 5784 5781 5780 5779 5780 5780 5777 5778 5776 5774 5772 5773 5772 5771 5771 5769 5769 5769 5769 5768 5768 5767 5767 5767
5844 5835 5837 5839 5840 5840 5836 5822 5825 5830 5828 5820 5816 5813 5811 5808 5806 5802 5800 5797 5795 5792 5791 5789 5788 5786 5782 5781 5781 5781 5781 5780 5779 5777 5774 5773 5773 5771 5771 5771 5769 5769 5769 5767 5767 5767 5768 5767 5767
5840 5833 5826 5834 5839 5839 5830 5815 5827 5834 5827 5819 5817 5814 5810 5809 5808 5806 5804 5801 5799 5795 5791 5790 5790 5787 5784 5782 5781 5783 5782 5781 5779 5778 5776 5774 5773 5772 5770 5771 5771 5769 5769 5768 5768 5768 5768 5766 5766
5831 5824 5822 5828 5839 5839 5830 5822 5830 5836 5828 5820 5817 5816 5812 5809 5809 5809 5808 5805 5801 5797 5793 5789 5790 5787 5786 5783 5782 5782 5782 5781 5780 5779 5777 5775 5773 5772 5772 5771 5770 5769 5769 5769 5769 5768 5767 5765 5764
5818 5822 5822 5824 5836 5834 5827 5827 5831 5834 5829 5823 5820 5818 5815 5812 5811 5812 5810 5808 5804 5800 5795 5792 5790 5788 5786 5785 5782 5782 5782 5782 5781 5780 5777 5775 5774 5773 5772 5772 5769 5769 5769 5767 5766 5764 5763 5763 5764
5828 5823 5821 5827 5839 5832 5826 5826 5831 5833 5829 5824 5821 5819 5816 5816 5818 5817 5813 5810 5806 5801 5797 5793 5792 5790 5787 5785 5783 5781 5780 5781 5781 5780 5777 5775 5774 5773 5771 5772 5769 5768 5767 5765 5765 5763 5762 5763 5764
5825 5820 5822 5829 5835 5829 5826 5826 5835 5834 5829 5828 5825 5821 5820 5818 5818 5815 5813 5811 5808 5803 5799 5796 5793 5792 5789 5787 5784 5783 5782 5781 5782 5780 5777 5775 5774 5772 5772 5770 5769 5768 5765 5763 5763 5761 5761 5761 5763
5822 5821 5822 5821 5828 5831 5824 5820 5827 5832 5833 5831 5830 5828 5826 5822 5819 5816 5813 5812 5810 5806 5802 5800 5796 5794 5791 5788 5786 5784 5781 5779 5779 5777 5776 5775 5773 5771 5770 5769 5769 5767 5767 5764 5760 5759 5757 5757 5759
5817 5831 5827 5822 5818 5819 5820 5807 5821 5829 5827 5827 5828 5827 5826 5826 5823 5820 5816 5813 5812 5810 5807 5802 5797 5794 5791 5788 5786 5782 5779 5776 5776 5776 5776 5774 5772 5771 5769 5768 5766 5765 5765 5762 5761 5761 5759 5755 5755
5826 5833 5828 5823 5818 5815 5819 5811 5818 5828 5820 5825 5828 5829 5829 5829 5826 5822 5820 5817 5815 5813 5809 5804 5799 5794 5791 5789 5786 5782 5781 5779 5778 5776 5773 5772 5772 5770 5768 5766 5765 5763 5763 5761 5759 5758 5757 5756 5754
5830 5825 5821 5821 5819 5798 5811 5808 5808 5825 5823 5826 5830 5830 5830 5829 5827 5824 5822 5819 5815 5813 5809 5805 5799 5794 5792 5788 5786 5782 5779 5777 5775 5773 5772 5771 5772 5770 5768 5766 5763 5762 5761 5759 5757 5756 5755 5753 5752
5823 5810 5797 5793 5796 5798 5816 5807 5809 5828 5832 5830 5829 5830 5830 5830 5827 5823 5820 5816 5813 5810 5808 5805 5799 5793 5791 5788 5785 5783 5780 5776 5773 5772 5771 5770 5770 5769 5766 5766 5762 5761 5759 5757 5756 5754 5753 5752 5749
5817 5815 5793 5782 5788 5803 5807 5803 5818 5833 5834 5834 5833 5831 5829 5828 5827 5823 5819 5815 5812 5809 5806 5803 5798 5794 5792 5788 5785 5783 5780 5778 5777 5774 5773 5770 5770 5769 5766 5763 5761 5759 5757 5756 5754 5753 5751 5749 5747
5811 5813 5823 5808 5802 5796 5806 5812 5821 5830 5827 5828 5827 5825 5823 5823 5822 5821 5818 5815 5811 5808 5805 5802 5797 5793 5791 5788 5784 5781 5778 5777 5776 5773 5771 5771 5768 5767 5764 5761 5759 5757 5755 5753 5751 5750 5747 5746 5746
5820 5819 5812 5802 5780 5778 5795 5803 5809 5814 5817 5821 5821 5820 5819 5819 5818 5817 5815 5813 5811 5808 5805 5802 5797 5792 5789 5786 5783 5781 5778 5775 5773 5772 5769 5767 5766 5764 5761 5759 5757 5755 5753 5751 5748 5747 5745 5743 5742
5804 5805 5805 5805 5801 5783 5782 5800 5823 5820 5820 5819 5819 5819 5816 5815 5814 5813 5811 5810 5809 5806 5803 5798 5794 5790 5787 5785 5782 5779 5776 5774 5771 5768 5767 5765 5763 5760 5757 5756 5753 5751 5750 5748 5745 5745 5742 5740 5739
5808 5805 5802 5789 5786 5791 5788 5799 5828 5825 5824 5820 5816 5814 5813 5812 5811 5809 5807 5805 5803 5801 5799 5795 5792 5788 5785 5783 5779 5776 5773 5770 5768 5766 5764 5762 5759 5757 5755 5752 5750 5748 5747 5745 5743 5740 5739 5737 5735